• Join FlightAware (Why Join?)
  • Login
  • US Flag 
03:59PM EDT


 

Airport Tracker/Info


-or-


 

Live Flight TrackerFlight Track Log ✈ N225SB ✈ 18-Sep-2013 ✈ KBDL - KFTY

Flight Track Log - Related Links

Times and Time Zones

All times are in EDT time to prevent confusion due to time zone crossing. See the N225SB flight status page for this flight to view local times or setup timezone preferences in your user account.

Time Position Orientation Groundspeed Altitude Reporting Facility
EDT Latitude Longitude Course Direction KTS MPH feet Rate Location/Type
08:14PM 41.9311 -72.7081 270° West 176 203 1,100  Level Boston Center
08:14PM 41.9311 -72.7667 270° West 207 238 3,500 2,460 Climbing Boston Center
08:15PM 41.9331 -72.8169 273° West 225 259 5,000 2,340 Climbing Boston Center
08:16PM 41.9242 -72.9200 263° West 250 288 7,600 3,120 Climbing Boston Center
08:17PM 41.9175 -73.0400 266° West 289 333 11,200 3,120 Climbing Boston Center
08:18PM 41.8917 -73.1400 251° West 311 358 13,900 2,280 Climbing Boston Center
08:19PM 41.8619 -73.2625 252° West 321 369 15,900 1,680 Climbing Boston Center
08:20PM 41.8253 -73.3956 250° West 341 392 17,600 1,260 Climbing Boston Center
08:21PM 41.7597 -73.5086 232° Southwest 349 402 18,800 1,320 Climbing Boston Center
08:23PM 41.6203 -73.6433 216° Southwest 360 414 21,100 1,200 Climbing New York Center
08:24PM 41.5433 -73.7175 216° Southwest 374 430 22,000 900 Climbing New York Center
08:25PM 41.4494 -73.8075 216° Southwest 399 459 23,000 960 Climbing New York Center
08:26PM 41.3597 -73.8944 216° Southwest 410 472 24,000 900 Climbing New York Center
08:27PM 41.2636 -73.9839 215° Southwest 417 480 24,900 780 Climbing New York Center
08:28PM 41.1675 -74.0731 215° Southwest 417 480 25,600 660 Climbing New York Center
08:29PM 41.0850 -74.1900 227° Southwest 424 488 26,300 840 Climbing New York Center
08:30PM 41.0064 -74.3097 229° Southwest 429 494 27,300 900 Climbing New York Center
08:31PM 40.9319 -74.4350 232° Southwest 434 499 28,200 900 Climbing New York Center
08:32PM 40.8553 -74.5542 230° Southwest 439 505 29,200 960 Climbing New York Center
08:33PM 40.7803 -74.6761 231° Southwest 439 505 30,200 960 Climbing New York Center
08:34PM 40.7075 -74.7953 231° Southwest 433 498 31,200 840 Climbing New York Center
08:35PM 40.6325 -74.9167 231° Southwest 433 498 31,900 720 Climbing New York Center
08:36PM 40.5575 -75.0350 230° Southwest 433 498 32,700 660 Climbing New York Center
08:41PM 40.2200 -75.5750 230° Southwest 420 483 35,900 660 Climbing FlightAware
08:41PM 40.1850 -75.6310 231° Southwest 418 481 36,200 540 Climbing FlightAware
08:42PM 40.1350 -75.7130 231° Southwest 417 480 36,600 420 Climbing FlightAware
08:43PM 40.0780 -75.8030 230° Southwest 415 478 36,900 480 Climbing FlightAware
08:43PM 40.0270 -75.8850 231° Southwest 413 475 37,400 660 Climbing FlightAware
08:44PM 39.9640 -75.9860 231° Southwest 409 471 38,000 360 Climbing FlightAware
08:45PM 39.9280 -76.0440 231° Southwest 409 471 38,000  Level FlightAware
08:46PM 39.8910 -76.1030 231° Southwest 409 471 38,000  Level FlightAware
08:46PM 39.8550 -76.1620 232° Southwest 409 471 38,000  Level FlightAware
08:47PM 39.8170 -76.2220 231° Southwest 409 471 38,000  Level FlightAware
08:47PM 39.7810 -76.2800 231° Southwest 409 471 38,000  Level FlightAware
08:48PM 39.7450 -76.3390 232° Southwest 409 471 38,000  Level FlightAware
08:49PM 39.7080 -76.3970 230° Southwest 409 471 38,000  Level FlightAware
08:49PM 39.6720 -76.4560 232° Southwest 409 471 38,000  Level FlightAware
08:50PM 39.6350 -76.5140 230° Southwest 409 471 38,000  Level FlightAware
08:50PM 39.5980 -76.5740 231° Southwest 409 471 38,000  Level FlightAware
08:51PM 39.5610 -76.6330 231° Southwest 409 471 38,000  Level FlightAware
08:52PM 39.5250 -76.6910 231° Southwest 409 471 38,000  Level FlightAware
08:52PM 39.4880 -76.7490 230° Southwest 409 471 38,000  Level FlightAware
08:53PM 39.4510 -76.8090 231° Southwest 409 471 38,000  Level FlightAware
08:53PM 39.4140 -76.8680 231° Southwest 409 471 38,000 960 Level FlightAware
08:55PM 39.1906 -77.1903 231° Southwest 417 480 40,000 780 Climbing Washington Center
08:56PM 39.1139 -77.3064 230° Southwest 422 486 40,000  Level Washington Center
08:57PM 39.0369 -77.4222 229° Southwest 427 491 40,000  Level Washington Center
08:58PM 38.9536 -77.5508 230° Southwest 432 497 40,000  Level Washington Center
08:59PM 38.8853 -77.6531 229° Southwest 432 497 40,000  Level Washington Center
09:00PM 38.7956 -77.7864 229° Southwest 441 507 40,000  Level Washington Center
09:01PM 38.7203 -77.9014 230° Southwest 448 516 40,000  Level Washington Center
09:02PM 38.6453 -78.0106 229° Southwest 438 504 40,000  Level Washington Center
09:03PM 38.5678 -78.1275 230° Southwest 432 497 40,000  Level Washington Center
09:04PM 38.4922 -78.2417 230° Southwest 432 497 40,000  Level Washington Center
09:05PM 38.4144 -78.3581 230° Southwest 426 490 40,000  Level Washington Center
09:06PM 38.3369 -78.4717 229° Southwest 426 490 40,000  Level Washington Center
09:07PM 38.2742 -78.5644 229° Southwest 426 490 40,000  Level Washington Center
09:08PM 38.1850 -78.7011 230° Southwest 426 490 40,000  Level Washington Center
09:09PM 38.1069 -78.8167 229° Southwest 431 496 40,000  Level Washington Center
09:10PM 38.0289 -78.9267 228° Southwest 431 496 40,000  Level Washington Center
09:11PM 37.9506 -79.0442 230° Southwest 431 496 40,000  Level Washington Center
09:12PM 37.8767 -79.1461 227° Southwest 436 502 40,000  Level Washington Center
09:13PM 37.7983 -79.2553 228° Southwest 431 496 40,000  Level Washington Center
09:14PM 37.7047 -79.3794 226° Southwest 431 496 40,000  Level Washington Center
09:15PM 37.6325 -79.4833 229° Southwest 436 502 40,000  Level Washington Center
09:16PM 37.5431 -79.6044 227° Southwest 436 502 40,000  Level Washington Center
09:17PM 37.4708 -79.7028 227° Southwest 436 502 40,000  Level Washington Center
09:18PM 37.3853 -79.8236 228° Southwest 456 525 40,000  Level Washington Center
09:19PM 37.3042 -79.9314 227° Southwest 449 517 40,000  Level Washington Center
09:20PM 37.1572 -80.1247 226° Southwest 426 490 40,000  Level Atlanta Center
09:21PM 37.0833 -80.2247 227° Southwest 426 490 40,000  Level Atlanta Center
09:22PM 37.0033 -80.3325 227° Southwest 431 496 40,000  Level Atlanta Center
09:23PM 36.9192 -80.4456 227° Southwest 437 503 40,000  Level Atlanta Center
09:24PM 36.8389 -80.5556 228° Southwest 431 496 40,000  Level Atlanta Center
09:25PM 36.7667 -80.6597 229° Southwest 436 502 40,000  Level Atlanta Center
09:26PM 36.6786 -80.7928 230° Southwest 426 490 40,000  Level Atlanta Center
09:27PM 36.6000 -80.9047 229° Southwest 426 490 40,000  Level Atlanta Center
09:28PM 36.5217 -81.0214 230° Southwest 433 498 40,000  Level Atlanta Center
09:29PM 36.4433 -81.1381 230° Southwest 439 505 40,000  Level Atlanta Center
09:30PM 36.3625 -81.2542 229° Southwest 439 505 40,000  Level Atlanta Center
09:31PM 36.2858 -81.3678 230° Southwest 439 505 40,000  Level Atlanta Center
09:32PM 36.2028 -81.4836 228° Southwest 439 505 40,000  Level Atlanta Center
09:33PM 36.1236 -81.5992 230° Southwest 444 511 40,000  Level Atlanta Center
09:34PM 36.0425 -81.7147 229° Southwest 444 511 40,000  Level Atlanta Center
09:35PM 35.9592 -81.8325 229° Southwest 452 520 40,000  Level Atlanta Center
09:36PM 35.8778 -81.9475 229° Southwest 452 520 40,000  Level Atlanta Center
09:37PM 35.7942 -82.0622 228° Southwest 447 514 40,000  Level Atlanta Center
09:38PM 35.7228 -82.1664 230° Southwest 447 514 40,000 -1,680 Level Atlanta Center
09:40PM 35.6316 -82.2518 219° Southwest  Level FlightAware Approximate
09:47PM 35.0736 -82.8662 221° Southwest  Level FlightAware Approximate
09:48PM 34.9924 -82.9528 221° Southwest  Level FlightAware Approximate
09:49PM 34.9110 -83.0390 219° Southwest  Level FlightAware Approximate
09:50PM 34.8304 -83.1263 223° Southwest  Level FlightAware Approximate
09:51PM 34.7512 -83.2153 223° Southwest  Level FlightAware Approximate
09:52PM 34.6768 -83.3062 251° West  Level FlightAware Approximate
09:53PM 34.6415 -83.4301 251° West  Level FlightAware Approximate
09:54PM 34.6062 -83.5539 251° West  Level FlightAware Approximate
09:55PM 34.5674 -83.6759 246° West  Level FlightAware Approximate
09:56PM 34.5333 -83.7979 270° West  Level FlightAware Approximate
09:56PM 34.3833 -84.0000 207° Southwest 303 349 9,100  Level Atlanta TRACON
09:57PM 34.4905 -83.9178 246° West  Level FlightAware Approximate
09:57PM 34.3167 -84.0667 220° Southwest 266 306 8,000  Level Atlanta TRACON
09:58PM 34.4216 -84.0059 202° Southwest  Level FlightAware Approximate
09:58PM 34.2500 -84.1000 202° Southwest 259 298 8,000  Level Atlanta TRACON
09:59PM 34.3219 -84.0557 202° Southwest  Level FlightAware Approximate
09:59PM 34.1833 -84.1500 212° Southwest 280 322 8,000  Level Atlanta TRACON
10:00PM 34.2203 -84.0988 195° South  Level FlightAware Approximate
10:00PM 34.1333 -84.2000 220° Southwest 291 335 7,100  Level Atlanta TRACON
10:01PM 34.1243 -84.1578 207° Southwest  Level FlightAware Approximate
10:01PM 34.0667 -84.2333 203° Southwest 254 292 6,000  Level Atlanta TRACON
10:02PM 34.0000 -84.2833 212° Southwest 223 257 4,700 -960 Descending Atlanta TRACON
10:03PM 33.9500 -84.3167 209° Southwest 203 234 4,000 -420 Descending Atlanta TRACON
10:04PM 33.9167 -84.3500 220° Southwest 189 217 4,000 -300 Level Atlanta TRACON
10:05PM 33.8833 -84.3667 203° Southwest 181 208 3,500 -720 Descending Atlanta TRACON
10:06PM 33.8333 -84.4000 209° Southwest 169 194 2,800 -600 Descending Atlanta TRACON
10:07PM 33.8000 -84.4167 203° Southwest 147 169 2,300 -600 Descending Atlanta TRACON
10:08PM 33.7833 -84.4667 248° West 137 158 1,600 -660 Descending Atlanta TRACON
10:10PM 33.7667 -84.5167 220° Southwest  Level FlightAware Approximate
10:17PM 33.7791 -84.5214 220° Southwest  Level Estimated